Lafayette, IN

3:23 PM EDT on May 23, 2018 (GMT -0400)
Purdue Univ

Weather History for KLAF - September, 2011

Change the Weather History Date:

Tuesday, September 6, 2011

  Actual Average Record
Temperature  
Mean Temperature 58 °F 70 °F  
Max Temperature 68 °F 81 °F 96 °F (1998)
Min Temperature 47 °F 58 °F 45 °F (2017)
Degree Days  
Heating Degree Days 7 1  
Month to date heating degree days 11 5  
Since 1 July heating degree days 11 11  
Cooling Degree Days 0 6  
Month to date cooling degree days 60 38  
Year to date cooling degree days 1204 890  
Growing Degree Days 6 (Base 50)    
Moisture  
Dew Point 46 °F    
Average Humidity 69    
Maximum Humidity 86    
Minimum Humidity 52    
Precipitation  
Precipitation 0.00 in 0.09 in 1.12 in (1983)
Month to date precipitation 0.23 0.53  
Year to date precipitation 29.63 26.08  
Sea Level Pressure  
Sea Level Pressure 30.09 in    
Wind  
Wind Speed 11 mph (NE)    
Max Wind Speed 24 mph    
Max Gust Speed 33 mph    
Visibility 10 miles    
Events      
T = Trace of Precipitation, MM = Missing Value Source: NWS Daily Summary

Daily Weather History Graph

Daily Weather History Graph

Search for Another Location

Airport or City:

Astronomy

Sep. 06, 2011 Rise Set
Actual Time 7:19 AM EDT 8:11 PM EDT
Civil Twilight 6:51 AM EDT 8:39 PM EDT
Nautical Twilight 6:18 AM EDT 9:12 PM EDT
Astronomical Twilight 5:44 AM EDT 9:46 PM EDT
Moon 4:47 PM EDT (9/6) 1:33 AM EDT (9/6)
Length of Visible Light 13h 47m
Length of Day
12h 52m
Waxing Gibbous, 70% of the Moon is Illuminated
Sep 6
Waxing Gibbous
Sep 12
Full
Sep 20
Last Quarter
Sep 27
New
Oct 3
First Quarter

Hourly Weather History & Observations

Time (EDT) Temp. Dew Point Humidity Pressure Visibility Wind Dir Wind Speed Gust Speed Precip Events Conditions
12:54 AM 53.1 °F 46.0 °F 77% 30.08 in 10.0 mi NE 9.2 mph - N/A   Clear
1:54 AM 52.0 °F 46.0 °F 80% 30.08 in 10.0 mi NE 6.9 mph - N/A   Clear
2:54 AM 52.0 °F 45.0 °F 77% 30.08 in 10.0 mi NE 9.2 mph - N/A   Clear
3:54 AM 51.1 °F 44.1 °F 77% 30.08 in 10.0 mi NE 8.1 mph - N/A   Clear
4:54 AM 50.0 °F 43.0 °F 77% 30.09 in 10.0 mi NNE 8.1 mph - N/A   Clear
5:54 AM 48.0 °F 43.0 °F 83% 30.08 in 10.0 mi NNE 9.2 mph - N/A   Clear
6:54 AM 48.0 °F 43.0 °F 83% 30.09 in 10.0 mi NNE 9.2 mph - N/A   Clear
7:54 AM 46.9 °F 43.0 °F 86% 30.11 in 10.0 mi NNE 9.2 mph - N/A   Clear
8:54 AM 51.1 °F 44.1 °F 77% 30.11 in 10.0 mi NNE 10.4 mph - N/A   Clear
10:54 AM 59.0 °F 46.0 °F 62% 30.12 in 10.0 mi ENE 15.0 mph 23.0 mph N/A   Clear
11:54 AM 61.0 °F 46.9 °F 60% 30.13 in 10.0 mi NE 13.8 mph 21.9 mph N/A   Overcast
12:54 PM 63.0 °F 46.0 °F 54% 30.12 in 10.0 mi ENE 18.4 mph 28.8 mph N/A   Overcast
1:54 PM 64.9 °F 46.9 °F 52% 30.10 in 10.0 mi NNE 17.3 mph 26.5 mph N/A   Mostly Cloudy
2:54 PM 66.0 °F 48.0 °F 52% 30.08 in 10.0 mi NE 18.4 mph 26.5 mph N/A   Overcast
3:54 PM 66.9 °F 48.0 °F 51% 30.07 in 10.0 mi ENE 12.7 mph 24.2 mph N/A   Mostly Cloudy
4:54 PM 66.9 °F 48.9 °F 52% 30.06 in 10.0 mi NE 13.8 mph 23.0 mph N/A   Partly Cloudy
5:54 PM 64.9 °F 48.0 °F 54% 30.06 in 10.0 mi NNE 13.8 mph - N/A   Partly Cloudy
6:54 PM 64.0 °F 48.0 °F 56% 30.06 in 10.0 mi NNE 10.4 mph 19.6 mph N/A   Clear
8:54 PM 61.0 °F 48.0 °F 62% 30.08 in 10.0 mi North 6.9 mph - N/A   Clear
9:54 PM 61.0 °F 48.0 °F 62% 30.09 in 10.0 mi NNE 10.4 mph - N/A   Mostly Cloudy
10:54 PM 61.0 °F 48.0 °F 62% 30.09 in 10.0 mi North 11.5 mph - N/A   Overcast
11:54 PM 57.9 °F 50.0 °F 75% 30.08 in 10.0 mi NNE 10.4 mph - N/A   Clear